GOES 7 [-]

Last updated on June 19, 2021, 11:20 a.m. UTC

1 17561U 87022A   21169.20834581  .00000015  00000-0  00000-0 0  9995
2 17561  14.5332 351.6478 0007395  46.9761 318.3335  0.99904623108738
UTC
Height (km)
Latitude
Longitude
Inclination
Orbital Period
UTC large
Height (km)
Speed (km/s)
/
Latitude / Longitude
Inclination (degrees)
Orbital Period (minutes)
Azimuth
Elevation
Range (km)
Doppler Factor
iOS Compass Heading
iOS Angle

Next 30 passes for location: Hong Kong

Rise time Rise Azimuth (degrees) Set time Set Azimuth (degrees) Duration Max altitude (degrees)

No matching passes for this satellites